SCP
0 0 0 0 0 0 0 0 0 0 0 1 1 1 2 1 1 1 1 1 1 0 0 0 0 0 0 0 0 0 0 0 0 0 0 0 0 0 0 0 0 0 0
0 0 0 0 0 0 0 0 0 0 0 0 1 1 2 2 2 1 1 1 1 1 0 0 0 0 0 0 0 0 0 0 0 0 0 0 0 0 0 0 0 0 0
0 0 0 0 0 0 0 0 0 0 0 0 0 1 1 2 2 2 2 1 1 1 1 0 0 0 0 0 0 0 0 0 0 0 0 0 0 0 0 0 0 0 0
0 0 0 0 0 0 0 0 0 0 0 0 0 0 1 1 1 2 2 2 1 1 1 0 0 0 0 0 0 0 0 0 0 0 0 0 0 0 0 0 0 0 0
0 0 0 0 0 0 0 0 0 0 0 0 0 0 0 1 1 1 2 2 2 1 1 1 0 0 0 0 0 0 0 0 0 0 0 0 0 0 0 0 0 0 0
0 0 0 0 0 0 0 0 0 0 0 0 0 0 0 0 1 1 1 2 2 2 1 1 1 0 0 0 0 0 0 0 0 0 0 0 0 0 0 0 0 0 0
0 0 0 0 0 0 0 0 0 0 0 0 0 0 0 0 0 1 1 1 2 2 2 1 1 0 0 0 0 0 0 0 0 0 0 0 0 0 0 0 0 0 0
0 0 0 0 0 0 0 0 0 0 0 0 0 0 0 0 0 0 1 1 1 2 2 1 1 1 0 0 0 0 0 0 0 0 0 0 0 0 0 0 0 0 0
0 0 0 0 0 0 0 0 0 0 0 0 0 0 0 0 0 0 0 1 1 1 1 1 1 1 0 0 0 0 0 0 0 0 0 0 0 0 0 0 0 0 0
0 0 0 0 0 0 0 0 0 0 0 0 0 0 0 0 0 0 0 1 1 1 1 1 1 0 0 0 0 0 0 0 0 0 0 0 0 0 0 0 0 0 0
0 0 0 0 0 0 0 0 0 0 0 0 0 0 0 0 0 0 0 0 0 1 1 1 1 0 0 0 0 0 0 0 0 0 0 0 0 0 0 0 0 0 0
0 0 0 0 0 0 0 0 0 0 0 0 0 0 0 0 0 0 0 0 0 0 0 0 0 0 0 0 0 0 0 0 0 0 0 0 0 0 0 0 0 0 0
0 0 0 0 0 0 0 0 0 0 0 0 0 0 0 0 0 0 0 0 0 0 0 0 0 0 0 0 0 0 0 0 0 0 0 0 0 0 0 0 0 0 0
0 0 0 0 0 0 0 0 0 0 0 0 0 0 0 0 0 0 0 0 0 0 0 0 0 0 0 0 0 0 0 0 0 0 0 0 0 0 0 0 0 0 0
0 0 0 0 0 0 0 0 0 0 0 0 0 0 0 0 0 0 0 0 0 0 0 0 0 0 0 0 0 0 0 0 0 0 0 0 0 0 0 0 0 0 0
0 0 0 0 0 0 0 0 0 0 0 0 0 0 0 0 0 0 0 0 0 0 0 0 0 0 0 0 0 0 0 0 0 0 0 0 0 0 0 0 0 0 0
0 0 0 0 0 0 0 0 0 0 0 0 0 0 0 0 0 0 0 0 0 0 0 0 0 0 0 0 0 0 0 0 0 0 0 0 0 0 0 0 0 0 0
0 0 0 0 0 0 0 0 0 0 0 0 0 0 0 0 0 0 0 0 0 0 0 0 0 0 0 0 0 0 0 0 0 0 0 0 0 0 0 0 0 0 0
0 -0 -0 -0 -0 -0 0 0 0 0 0 0 0 0 0 0 0 0 0 0 0 0 0 0 0 0 0 0 0 0 0 0 0 0 0 0 0 0 0 0 0 0 0
-0 -0 -0 -0 -0 -0 -0 -0 0 0 0 0 0 0 0 0 0 0 0 0 0 0 0 0 0 0 0 0 0 0 0 0 0 0 0 0 0 0 0 0 0 0 0
0 -0 -0 -0 -0 -0 -0 -0 -0 0 -0 -0 -0 -0 0 0 0 0 0 0 0 0 0 0 0 0 0 0 0 0 0 0 0 0 0 0 0 0 0 0 0 0 0
0 0 -0 -0 -0 -0 -0 -0 -0 -0 -0 -0 -0 -0 -0 -0 0 0 0 0 0 0 0 0 0 0 0 0 0 0 0 0 0 0 0 0 0 0 0 0 0 0 0
0 0 0 0 -0 -0 -0 -0 -0 -0 -0 -0 -0 -0 -0 -0 -0 0 0 0 0 0 0 0 0 0 0 0 0 0 0 0 0 0 0 0 0 0 0 0 0 0 0
0 0 0 0 0 0 0 0 0 0 0 -0 -0 -0 -0 -0 -0 -0 -0 0 0 0 0 0 0 0 0 0 0 0 0 0 0 0 0 0 0 0 0 0 0 0 0
0 0 0 0 0 0 0 0 0 0 0 0 0 0 0 0 0 0 0 0 0 0 0 0 0 0 0 0 0 0 0 0 0 0 0 0 0 0 0 0 0 0 0
0 0 0 0 0 0 0 0 0 0 0 0 0 0 0 0 0 0 0 0 0 0 0 0 0 0 0 0 0 0 0 0 0 0 0 0 0 0 0 0 0 0 0
Wind_Speed
6 5 5 5 6 6 8 9 10 11 10 9 10 11 12 12 11 12 14 15 14 15 15 12 13 13 12 12 13 10 10 7 7 5 5 5 6 7 7 7 7 8 8
2 3 4 4 4 4 5 7 8 9 10 10 10 11 12 11 12 10 12 14 15 15 13 16 13 14 12 14 15 13 9 7 8 7 5 5 6 7 8 8 7 9 8
4 5 6 6 5 5 6 5 7 8 9 10 9 9 9 10 9 11 12 15 16 16 15 17 15 14 14 13 16 16 14 10 9 9 7 6 7 6 7 10 9 9 8
6 6 7 7 7 6 6 6 7 7 7 7 9 13 12 13 15 12 12 14 16 16 16 16 16 15 13 14 15 16 14 13 10 8 7 5 2 5 6 6 8 9 9
6 6 7 7 7 7 7 7 7 7 6 6 8 11 13 13 12 12 14 14 13 15 16 16 15 15 14 16 16 16 16 13 12 9 7 6 4 5 5 5 7 7 8
6 6 7 7 7 8 8 8 8 8 7 6 7 9 12 14 14 15 13 12 10 11 15 15 15 15 14 16 16 16 18 15 15 12 9 8 7 8 6 5 5 6 6
6 7 8 9 9 9 9 9 9 9 9 8 8 8 10 12 15 14 14 13 11 10 13 14 14 14 15 15 15 15 16 17 16 14 10 9 8 5 6 5 4 4 4
6 7 8 9 9 9 10 10 10 11 10 10 9 9 9 8 9 12 12 12 11 11 12 14 13 14 14 13 12 11 13 12 13 12 10 6 4 4 4 5 6 5 4
6 7 8 8 9 9 10 10 11 11 11 11 11 10 10 9 10 11 11 10 10 9 11 12 12 12 12 11 10 9 11 9 9 8 8 5 4 3 2 3 3 5 5
7 7 8 9 9 9 9 10 10 10 11 11 10 8 10 9 9 9 10 9 9 8 8 9 10 10 10 9 9 7 7 8 7 6 8 6 5 5 4 4 4 3 4
8 7 8 8 8 8 9 10 10 11 11 11 10 10 9 9 8 7 7 7 6 5 6 7 7 8 9 9 9 8 9 10 9 9 10 9 8 6 5 5 5 4 4
6 7 7 8 8 9 10 10 10 11 11 11 10 10 9 8 7 6 5 4 3 3 3 4 5 6 8 9 10 10 11 11 11 11 11 11 8 8 6 5 5 4 3
6 6 7 7 8 9 9 10 10 11 11 11 10 9 9 8 7 6 5 3 2 1 2 2 4 5 6 8 8 9 9 9 9 10 10 10 10 9 6 6 5 3 3
5 6 7 7 8 9 9 9 10 11 11 10 10 10 10 9 8 7 6 5 4 4 5 5 5 5 6 6 8 9 10 10 10 9 9 9 8 8 7 5 5 4 3
5 6 7 7 8 8 9 9 9 10 10 10 10 10 10 9 9 9 9 9 8 8 8 9 9 9 7 7 10 10 11 12 12 10 9 8 9 9 6 4 4 4 3
4 5 6 7 8 8 8 9 9 9 9 9 9 9 9 10 10 10 10 10 10 10 10 10 10 10 8 14 16 13 11 11 11 10 9 8 8 7 5 4 5 6 5
3 4 5 6 6 7 7 8 8 7 8 8 9 9 9 10 10 10 10 10 10 11 11 11 11 11 14 18 19 17 11 11 9 8 7 5 5 5 2 1 3 5 7
2 3 4 5 5 5 6 6 6 7 8 8 8 8 9 9 9 10 10 10 9 10 10 11 11 12 14 19 20 18 12 10 9 7 6 5 3 2 2 3 4 5 5
2 2 3 3 4 5 5 5 6 7 8 8 8 8 8 8 9 9 9 9 9 10 9 10 11 12 13 17 16 13 7 7 7 5 4 2 1 2 4 4 4 5 5
3 2 3 3 4 5 5 6 7 7 8 7 7 7 8 8 9 9 9 8 9 9 9 10 9 9 9 12 12 9 5 5 4 3 2 1 2 3 4 4 5 6 6
4 3 3 3 3 4 5 6 7 7 6 6 7 8 8 8 8 8 8 8 8 9 9 9 7 6 7 8 9 6 3 3 2 1 0 1 3 5 5 5 4 6 8
5 5 4 3 3 3 5 6 5 4 5 6 7 7 7 7 6 8 7 7 7 8 7 6 6 5 5 5 6 6 4 3 1 1 1 2 4 6 5 5 7 10 9
7 6 5 4 3 3 4 5 4 5 5 7 7 7 7 7 6 6 6 5 5 4 4 4 3 3 3 4 6 5 4 4 3 2 4 4 5 5 5 6 8 7 5
7 7 7 6 5 4 4 5 5 5 6 7 7 6 6 6 6 5 4 4 3 3 3 2 2 2 2 1 1 1 2 3 3 3 2 3 4 5 6 6 4 4 4
8 7 7 7 7 6 5 5 6 6 7 7 6 5 5 5 5 5 5 4 4 4 3 2 2 1 1 2 4 4 3 4 4 4 3 4 3 3 3 3 4 4 4
9 8 8 8 8 7 6 6 6 6 7 6 5 4 4 3 3 4 5 7 6 7 5 3 2 1 2 3 4 5 5 5 6 4 4 4 4 4 4 4 4 4 4
Wind_Direction
296 310 310 303 288 275 266 258 252 244 237 231 224 221 223 225 225 223 223 222 221 218 215 213 208 202 204 202 198 189 186 182 168 166 184 197 211 215 207 205 199 194 191
24 28 14 5 341 314 294 277 262 255 244 236 233 230 230 229 228 226 225 223 221 219 216 215 210 204 206 203 199 188 187 177 183 185 181 198 199 212 212 208 210 204 193
47 33 27 24 13 356 332 309 292 276 261 252 244 239 236 235 230 227 225 223 221 219 217 219 216 208 206 204 199 194 191 185 191 201 196 198 206 179 189 208 208 208 203
40 30 22 18 13 0 343 325 311 295 282 265 248 238 232 232 231 230 229 226 221 220 219 219 219 213 211 209 203 201 200 193 189 200 226 247 223 183 175 192 207 209 212
21 15 11 2 360 356 345 333 324 314 302 281 261 252 245 244 243 238 236 232 224 220 217 218 217 215 213 214 207 203 204 201 196 188 184 201 214 230 198 180 183 199 209
9 5 5 358 356 353 347 339 330 325 318 301 279 258 254 252 249 245 242 238 231 222 219 217 216 216 215 215 211 205 208 207 205 197 190 185 185 197 203 189 172 185 183
358 358 359 356 353 348 345 337 332 326 324 314 297 281 267 260 254 251 246 243 238 229 221 215 217 218 219 219 214 208 209 211 210 206 205 206 205 181 192 190 155 158 150
357 355 354 349 346 343 341 338 333 326 324 318 309 296 282 269 262 256 252 248 244 238 228 219 219 219 220 219 217 213 211 211 212 212 203 195 187 176 176 168 151 150 156
354 353 352 350 346 343 342 337 331 326 324 319 312 302 292 280 272 268 262 256 251 248 236 223 217 216 215 213 210 213 211 208 207 199 186 168 147 134 126 123 141 153 164
353 354 354 351 348 346 341 341 337 331 326 321 315 309 304 297 287 278 269 261 255 247 238 226 216 210 204 199 197 197 194 188 182 166 161 148 140 126 113 105 90 90 120
351 353 352 351 350 351 351 349 347 343 338 332 324 317 313 311 302 289 281 272 260 245 231 221 209 200 193 187 184 181 175 173 166 160 156 147 139 128 117 106 100 94 102
352 354 354 356 358 358 357 354 350 346 341 335 330 328 324 321 316 310 304 293 275 252 228 205 191 184 180 177 177 174 170 168 164 157 148 142 133 123 117 112 110 114 118
354 356 2 4 3 360 358 354 352 349 345 344 343 344 343 340 337 337 340 346 4 62 106 143 154 160 164 165 165 161 156 152 146 143 140 135 130 124 120 118 121 124 132
357 360 2 6 6 1 357 356 356 354 352 353 360 3 1 1 5 11 22 34 49 72 85 92 100 111 123 131 133 130 126 121 115 115 116 117 120 124 127 127 134 140 158
359 4 3 4 3 2 360 360 359 0 359 5 13 14 13 19 28 35 42 50 58 65 75 82 85 88 94 105 112 111 112 109 102 96 94 98 109 123 129 136 153 168 191
359 4 5 4 3 3 2 2 4 4 8 18 22 24 28 34 40 45 51 57 62 68 73 78 84 86 92 108 108 108 103 102 102 100 95 96 97 112 126 159 190 202 215
2 8 8 8 5 4 5 8 9 12 23 29 31 34 39 44 45 51 57 62 66 72 75 78 81 88 99 103 102 99 96 95 95 99 102 102 105 102 109 220 256 246 251
24 24 16 17 13 14 18 21 24 29 36 39 39 42 49 54 56 59 61 61 65 70 74 78 80 82 87 92 93 93 88 90 93 95 101 109 118 144 203 222 236 246 249
70 49 38 35 31 32 33 40 43 43 44 42 42 47 56 62 64 63 62 62 67 69 69 73 77 80 83 87 92 93 93 97 99 105 116 132 170 229 254 250 252 261 263
121 96 81 74 61 54 54 60 55 51 46 43 48 54 61 66 68 68 67 67 70 72 74 73 75 83 91 97 100 101 103 110 117 128 144 197 295 288 284 280 273 277 288
136 122 106 89 73 74 80 72 63 53 49 54 58 59 63 69 74 76 74 77 80 81 80 80 79 84 101 111 108 101 93 99 106 102 21 355 316 306 309 305 289 294 298
151 143 131 112 91 96 103 92 76 70 73 74 70 65 66 71 78 85 84 86 92 93 92 91 86 76 80 93 99 90 77 60 31 354 336 327 313 314 321 311 306 301 297
161 157 152 141 125 118 126 117 112 112 103 92 84 81 80 77 79 85 90 88 86 89 92 94 94 87 71 71 68 59 45 20 343 338 332 330 334 322 307 303 304 298 283
171 167 165 162 153 143 136 130 132 130 120 107 99 94 90 86 81 76 74 79 81 90 98 98 99 99 97 75 44 18 356 338 324 314 316 311 313 298 294 295 284 276 280
175 176 177 171 163 157 148 144 145 143 127 116 109 102 94 97 89 78 67 67 58 45 61 71 65 41 42 16 353 337 330 330 330 313 290 291 296 292 289 287 285 278 270
176 179 181 175 167 165 158 156 158 156 141 132 128 121 117 109 105 105 96 73 72 77 72 58 20 348 323 331 331 329 329 325 326 300 287 293 296 300 304 301 294 288 279